User: anonymous   Login
Location: Unspecified
(0.0000°N, 0.0000°E)
Time: 09:14:07
(UTC+01:00)
Language:

GPS 2-12 Rocket1 - Orbit

View from above orbital plane
View from above orbital plane
View from above satellite
View from above satellite

Ground track
Ground track

The orbit data is extracted from the following two-line orbital elements,

1 21891U 92009B   18016.98522156 +.00000575 +00000-0 +19919-4 0  9995
2 21891 019.9958 234.1701 0047186 198.8802 160.9864 14.82990656377128
Epoch (UTC): 16 January 2018 23:38:43
Eccentricity: 0.0047186
inclination: 19.9958°
perigee height: 587 km
apogee height: 653 km
right ascension of ascending node: 234.1701°
argument of perigee: 198.8802°
revolutions per day: 14.82990656
mean anomaly at epoch: 160.9864°
orbit number at epoch: 37712

The dashed part of the orbit path shows where the satellite is in the earth's shadow,  

DLR